Location: Devore Heights
(34.2372°N, 117.4156°W)
Time: 18:33:05
(UTC+00:00)

Vanguard 1 Rocket - Pass Details

Date: 19 September 2024
Orbit: 650 x 4218 km, 34.3° (Epoch: 04 October)

Event Time Altitude Azimuth Distance (km) Brightness Sun altitude
Rises 12:28:38 0° 267° (W) 5,505 - -14.7°
Reaches altitude 10° 12:31:31 10° 268° (W) 4,858 - -14.1°
Exits shadow 12:32:57 16° 268° (W) 4,567 10.3 -13.8°
Maximum altitude 12:47:19 90° 2° (N) 3,451 10.3 -10.9°
Drops below altitude 10° 13:13:36 10° 94° (E) 7,419 13.8 -5.5°
Sets 13:19:22 0° 95° (E) 8,376 14.7 -4.3°
